Location: Ffm
(50.0000°N, 8.5000°E)
Time: 10:40:27
(UTC+01:00)

Envisat - Pass Details

Date: 29 October 2020
Orbit: 764 x 766 km, 98.1° (Epoch: 03 December)

Event Time Altitude Azimuth Distance (km) Brightness Sun altitude
Rises 05:04:12 0° 28° (NNE) 3,243 6.7 -20.9°
Reaches altitude 10° 05:07:31 10° 51° (NE) 2,310 6.2 -20.3°
Maximum altitude 05:10:28 15° 87° (E) 1,958 6.2 -19.9°
Drops below altitude 10° 05:13:24 10° 123° (ESE) 2,299 6.3 -19.4°
Sets 05:16:41 0° 145° (SE) 3,218 6.7 -18.9°
